This is the latest recevied weather packets stored in our database for station/object DL8TF-13. If no packets are shown the sender has not sent any weather packets the latest 10 day(s).
| Time | Temp. | Humidity | Pressure | Rain* | Wind** | Luminosity | Snow |
|---|---|---|---|---|---|---|---|
| 1777872837 | 13.33° C | 63% | 983 hPa | - | - | - | - |
| 1777872237 | 12.78° C | 64% | 983 hPa | - | - | - | - |
| 1777871637 | 12.78° C | 65% | 983 hPa | - | - | - | - |
| 1777871037 | 12.78° C | 65% | 983 hPa | - | - | - | - |
| 1777870437 | 12.78° C | 64% | 983 hPa | - | - | - | - |
| 1777869837 | 12.78° C | 64% | 983 hPa | - | - | - | - |
| 1777869237 | 12.78° C | 62% | 983 hPa | - | - | - | - |
| 1777868637 | 12.78° C | 63% | 983 hPa | - | - | - | - |
| 1777868037 | 12.78° C | 64% | 983 hPa | - | - | - | - |
| 1777867437 | 12.78° C | 64% | 983 hPa | - | - | - | - |
| 1777866837 | 13.33° C | 63% | 983 hPa | - | - | - | - |
| 1777866237 | 13.33° C | 62% | 983 hPa | - | - | - | - |
| 1777865637 | 13.33° C | 64% | 983 hPa | - | - | - | - |
| 1777865037 | 13.89° C | 62% | 983 hPa | - | - | - | - |
| 1777864437 | 13.89° C | 63% | 983 hPa | - | - | - | - |
| 1777863837 | 13.33° C | 64% | 983 hPa | - | - | - | - |
| 1777863237 | 13.89° C | 63% | 983 hPa | - | - | - | - |
| 1777862636 | 14.44° C | 61% | 983 hPa | - | - | - | - |
| 1777862036 | 14.44° C | 60% | 983 hPa | - | - | - | - |
| 1777861436 | 14.44° C | 61% | 983 hPa | - | - | - | - |
| 1777860836 | 15° C | 59% | 983 hPa | - | - | - | - |
| 1777860236 | 15.56° C | 59% | 983 hPa | - | - | - | - |
| 1777859636 | 15.56° C | 56% | 983 hPa | - | - | - | - |
| 1777859036 | 16.11° C | 55% | 983 hPa | - | - | - | - |
| 1777858436 | 16.11° C | 53% | 983 hPa | - | - | - | - |
* Rain since midnight (hover to see other rain measurements)
** Current wind speed in m/s (hover to see current wind gust speed)